timestamp,surface_pressure_avg,surface_temp_avg,battery_voltage,lat,long
2021-07-30 00:09:01+00:00,245.0731,17.3,13.05,47.84626,-54.09684
2021-07-30 00:19:01+00:00,245.1047,17.3,12.81,47.84626,-54.09684
2021-07-30 00:29:01+00:00,247.7931,17.33,12.81,47.84626,-54.09684
2021-07-30 00:39:01+00:00,253.0515,17.37,12.81,47.84626,-54.09684
2021-07-30 00:49:01+00:00,258.8681,17.39,12.81,47.84626,-54.09684
2021-07-30 00:59:01+00:00,261.2197,17.38,12.81,47.84626,-54.09684
2021-07-30 01:09:01+00:00,265.3531,17.38,12.81,47.84626,-54.09684
2021-07-30 01:19:01+00:00,271.2848,17.37,12.73,47.84626,-54.09684
2021-07-30 01:29:01+00:00,276.6213,17.3,12.73,47.84626,-54.09684
2021-07-30 01:39:01+00:00,279.6997,17.3,12.73,47.84626,-54.09684
2021-07-30 01:49:01+00:00,286.8997,17.3,12.73,47.84626,-54.09684
2021-07-30 01:59:01+00:00,293.763,17.3,12.73,47.84626,-54.09684
2021-07-30 02:09:01+00:00,297.968,17.33,12.73,47.84626,-54.09684
2021-07-30 02:19:00+00:00,305.3597,17.35,12.73,47.84626,-54.09684
2021-07-30 02:29:00+00:00,315.4014,17.3,12.73,47.84626,-54.09684
2021-07-30 02:39:00+00:00,320.5646,17.3,12.73,47.84626,-54.09684
2021-07-30 02:49:00+00:00,325.3013,17.34,12.73,47.84626,-54.09684
2021-07-30 02:59:00+00:00,334.6363,17.32,12.73,47.84626,-54.09684
2021-07-30 03:09:00+00:00,336.5346,17.3,12.73,47.84626,-54.09684
2021-07-30 03:19:00+00:00,332.0197,17.35,12.73,47.84626,-54.09684
2021-07-30 03:29:00+00:00,334.2529,17.35,12.73,47.84626,-54.09684
2021-07-30 03:39:00+00:00,337.5529,17.3,12.73,47.84626,-54.09684
2021-07-30 03:49:00+00:00,338.2246,17.29,12.73,47.84626,-54.09684
2021-07-30 03:59:00+00:00,338.2812,16.9,12.73,47.84626,-54.09684
2021-07-30 04:09:00+00:00,341.7646,16.79,12.73,47.84626,-54.09684
2021-07-30 04:19:00+00:00,340.4146,16.98,12.73,47.84626,-54.09684
2021-07-30 04:29:00+00:00,339.5163,17.14,12.73,47.84626,-54.09684
2021-07-30 04:39:00+00:00,344.31800000000015,17.2,12.73,47.84626,-54.09684
2021-07-30 04:49:00+00:00,339.783,17.3,12.73,47.84626,-54.09684
2021-07-30 04:59:00+00:00,329.6880000000001,17.3,12.73,47.84626,-54.09684
2021-07-30 05:09:00+00:00,327.6813,17.3,12.73,47.84626,-54.09684
2021-07-30 05:19:01+00:00,329.5596,17.3,12.73,47.84626,-54.09684
2021-07-30 05:29:01+00:00,318.803,17.2,12.73,47.84626,-54.09684
2021-07-30 05:39:01+00:00,310.0297,17.1,12.73,47.84626,-54.09684
2021-07-30 05:49:01+00:00,313.2813,17.1,12.73,47.84626,-54.09684
2021-07-30 05:59:01+00:00,311.1063,17.12,12.73,47.84626,-54.09684
2021-07-30 06:09:01+00:00,304.5814,17.2,12.73,47.84626,-54.09684
2021-07-30 06:19:00+00:00,304.4797,17.2,12.73,47.84626,-54.09684
2021-07-30 06:29:00+00:00,300.9696,17.2,12.73,47.84626,-54.09684
2021-07-30 06:39:00+00:00,285.9247,17.2,12.73,47.84626,-54.09684
2021-07-30 06:49:00+00:00,274.1747,17.2,12.73,47.84626,-54.09684
2021-07-30 06:59:00+00:00,275.4764,17.1,12.73,47.84626,-54.09684
2021-07-30 07:09:00+00:00,273.7681,17.1,12.73,47.84626,-54.09684
2021-07-30 07:19:01+00:00,260.0598,17.2,12.73,47.84626,-54.09684
2021-07-30 07:29:01+00:00,248.0581,17.2,12.73,47.84626,-54.09684
2021-07-30 07:39:01+00:00,242.7398,17.2,12.73,47.84626,-54.09684
2021-07-30 07:49:01+00:00,234.6898,17.2,12.73,47.84626,-54.09684
2021-07-30 07:59:01+00:00,230.6731,17.2,12.73,47.84626,-54.09684
2021-07-30 08:09:01+00:00,227.6964,17.2,12.73,47.84626,-54.09684
2021-07-30 08:19:01+00:00,218.4697,17.2,12.65,47.84626,-54.09684
2021-07-30 08:29:01+00:00,207.9581,17.27,12.65,47.84626,-54.09684
2021-07-30 08:39:01+00:00,205.7748,17.3,12.65,47.84626,-54.09684
2021-07-30 08:49:01+00:00,205.4164,17.3,12.65,47.84626,-54.09684
2021-07-30 08:59:01+00:00,201.1797,17.3,12.65,47.84626,-54.09684
2021-07-30 09:09:01+00:00,195.2664,17.3,12.65,47.84626,-54.09684
2021-07-30 09:19:00+00:00,195.3064,17.35,12.81,47.84626,-54.09684
2021-07-30 09:29:00+00:00,197.4448,17.38,12.81,47.84626,-54.09684
2021-07-30 09:39:00+00:00,199.5264,17.39,12.81,47.84626,-54.09684
2021-07-30 09:49:00+00:00,202.4131,17.4,12.81,47.84626,-54.09684
2021-07-30 09:59:00+00:00,202.7681,17.4,12.81,47.84626,-54.09684
2021-07-30 10:09:00+00:00,204.2181,17.4,12.81,47.84626,-54.09684
2021-07-30 10:19:01+00:00,209.1765,17.4,13.13,47.84626,-54.09684
2021-07-30 10:29:01+00:00,217.1497,17.4,13.13,47.84626,-54.09684
2021-07-30 10:39:01+00:00,218.5414,17.4,13.13,47.84626,-54.09684
2021-07-30 10:49:01+00:00,219.3047,17.4,13.13,47.84626,-54.09684
2021-07-30 10:59:01+00:00,228.4764,17.4,13.13,47.84626,-54.09684
2021-07-30 11:09:01+00:00,236.2931,17.4,13.13,47.84626,-54.09684
2021-07-30 11:19:01+00:00,235.7814,17.4,14.0,47.84626,-54.09684
2021-07-30 11:29:01+00:00,237.0865,17.39,14.0,47.84626,-54.09684
2021-07-30 11:39:01+00:00,242.4681,17.3,14.0,47.84626,-54.09684
2021-07-30 11:49:01+00:00,240.5131,17.3,14.0,47.84626,-54.09684
2021-07-30 11:59:01+00:00,236.4231,17.3,14.0,47.84626,-54.09684
2021-07-30 12:09:01+00:00,242.2964,17.29,14.0,47.84626,-54.09684
2021-07-30 12:19:01+00:00,250.9798,17.2,14.24,47.84626,-54.09684
2021-07-30 12:29:01+00:00,245.8448,17.2,14.24,47.84626,-54.09684
2021-07-30 12:39:01+00:00,241.1164,17.2,14.24,47.84626,-54.09684
2021-07-30 12:49:01+00:00,250.8748,17.2,14.24,47.84626,-54.09684
2021-07-30 12:59:01+00:00,262.7114,17.1,14.24,47.84626,-54.09684
2021-07-30 13:09:01+00:00,261.8647,16.97,14.24,47.84626,-54.09684
2021-07-30 13:19:01+00:00,257.3981,17.0,14.16,47.84626,-54.09684
2021-07-30 13:29:01+00:00,268.0648,17.01,14.16,47.84626,-54.09684
2021-07-30 13:39:01+00:00,276.8297,17.0,14.16,47.84626,-54.09684
2021-07-30 13:49:01+00:00,275.6164,16.98,14.16,47.84626,-54.09684
2021-07-30 13:59:01+00:00,276.3614,17.1,14.16,47.84626,-54.09684
2021-07-30 14:09:01+00:00,293.1397,16.9,14.16,47.84626,-54.09684
2021-07-30 14:19:01+00:00,300.5897,16.92,14.0,47.84626,-54.09684
2021-07-30 14:29:01+00:00,295.793,17.16,14.0,47.84626,-54.09684
2021-07-30 14:39:01+00:00,299.6346,17.2,14.0,47.84626,-54.09684
2021-07-30 14:49:01+00:00,317.7763,17.1,14.0,47.84626,-54.09684
2021-07-30 14:59:01+00:00,324.9796,16.73,14.0,47.84626,-54.09684
2021-07-30 15:09:01+00:00,322.4513,17.09,14.0,47.84626,-54.09684
2021-07-30 15:19:01+00:00,324.3246,17.0,14.16,47.84626,-54.09684
2021-07-30 15:29:01+00:00,328.8463,16.99,14.16,47.84626,-54.09684
2021-07-30 15:39:01+00:00,322.9263,16.9,14.16,47.84626,-54.09684
2021-07-30 15:49:01+00:00,326.4647,17.0,14.16,47.84626,-54.09684
2021-07-30 15:59:01+00:00,334.9097,16.89,14.16,47.84626,-54.09684
2021-07-30 16:09:01+00:00,331.298,17.06,14.16,47.84626,-54.09684
2021-07-30 16:19:00+00:00,321.7764,17.1,14.24,47.84626,-54.09684
2021-07-30 16:29:00+00:00,329.0246,16.8,14.24,47.84626,-54.09684
2021-07-30 16:39:00+00:00,335.0163,16.78,14.24,47.84626,-54.09684
2021-07-30 16:49:00+00:00,328.4846,17.12,14.24,47.84626,-54.09684
2021-07-30 16:59:00+00:00,326.933,16.8,14.24,47.84626,-54.09684
2021-07-30 17:09:00+00:00,334.2313,16.5,14.24,47.84626,-54.09684
2021-07-30 17:19:00+00:00,332.5964,16.91,14.08,47.84626,-54.09684
2021-07-30 17:29:00+00:00,322.1814,17.2,14.08,47.84626,-54.09684
2021-07-30 17:39:00+00:00,321.1964,16.99,14.08,47.84626,-54.09684
2021-07-30 17:49:00+00:00,322.668,16.74,14.08,47.84626,-54.09684
2021-07-30 17:59:00+00:00,318.2063,16.68,14.08,47.84626,-54.09684
2021-07-30 18:09:00+00:00,311.5613,16.7,14.08,47.84626,-54.09684
2021-07-30 18:19:01+00:00,311.788,16.6,14.0,47.84626,-54.09684
2021-07-30 18:29:01+00:00,307.96299999999997,16.61,14.0,47.84626,-54.09684
2021-07-30 18:39:01+00:00,297.408,16.69,14.0,47.84626,-54.09684
2021-07-30 18:49:01+00:00,290.548,16.6,14.0,47.84626,-54.09684
2021-07-30 18:59:01+00:00,293.8664,16.55,14.0,47.84626,-54.09684
2021-07-30 19:09:01+00:00,288.858,16.59,14.0,47.84626,-54.09684
2021-07-30 19:19:01+00:00,275.5864,16.76,13.92,47.84626,-54.09684
2021-07-30 19:29:01+00:00,268.9597,16.8,13.92,47.84626,-54.09684
2021-07-30 19:39:01+00:00,268.8764,16.8,13.92,47.84626,-54.09684
2021-07-30 19:49:01+00:00,265.4747,16.74,13.92,47.84626,-54.09684
2021-07-30 19:59:01+00:00,259.1881,16.85,13.92,47.84626,-54.09684
2021-07-30 20:09:01+00:00,249.058,16.9,13.92,47.84626,-54.09684
2021-07-30 20:19:01+00:00,239.1964,16.9,13.84,47.84626,-54.09684
2021-07-30 20:29:01+00:00,234.6548,16.9,13.84,47.84626,-54.09684
2021-07-30 20:39:01+00:00,234.0698,16.93,13.84,47.84626,-54.09684
2021-07-30 20:49:01+00:00,230.3114,17.0,13.84,47.84626,-54.09684
2021-07-30 20:59:01+00:00,220.9131,17.1,13.84,47.84626,-54.09684
2021-07-30 21:09:01+00:00,215.6014,17.19,13.84,47.84626,-54.09684
2021-07-30 21:19:01+00:00,218.7414,17.2,13.6,47.84626,-54.09684
2021-07-30 21:29:01+00:00,215.9531,17.29,13.6,47.84626,-54.09684
2021-07-30 21:39:01+00:00,211.3331,17.37,13.6,47.84626,-54.09684
2021-07-30 21:49:01+00:00,212.1681,17.45,13.6,47.84626,-54.09684
2021-07-30 21:59:01+00:00,215.4814,17.5,13.6,47.84626,-54.09684
2021-07-30 22:09:01+00:00,216.1781,17.5,13.6,47.84626,-54.09684
2021-07-30 22:19:01+00:00,215.9048,17.5,13.29,47.84626,-54.09684
2021-07-30 22:29:01+00:00,214.2964,17.5,13.29,47.84626,-54.09684
2021-07-30 22:39:01+00:00,214.1314,17.51,13.29,47.84626,-54.09684
2021-07-30 22:49:01+00:00,219.2664,17.54,13.29,47.84626,-54.09684
2021-07-30 22:59:01+00:00,221.5198,17.53,13.29,47.84626,-54.09684
2021-07-30 23:09:01+00:00,228.8414,17.57,13.29,47.84626,-54.09684
2021-07-30 23:19:01+00:00,238.2981,17.57,12.89,47.84626,-54.09684
2021-07-30 23:29:01+00:00,241.673,17.59,12.89,47.84626,-54.09684
2021-07-30 23:39:01+00:00,241.1231,17.6,12.89,47.84626,-54.09684
2021-07-30 23:49:01+00:00,242.0381,17.6,12.89,47.84626,-54.09684
2021-07-30 23:59:01+00:00,248.1948,17.59,12.89,47.84626,-54.09684
